Probability
0 0 0 0 0 0 0 0 0 0 0 0 0 0 0 0 0 0 0 0 0 0 0 0 0 0 0 0 0 0 0 0 0 0 0 0 0 0 0 0 0 0 0
0 0 0 0 0 0 0 0 0 0 0 0 0 0 0 0 0 0 0 0 0 0 0 0 0 0 0 0 0 0 0 0 0 0 0 0 0 0 0 0 0 0 0
0 0 0 0 0 0 0 0 0 0 0 0 0 0 0 0 0 0 0 0 0 0 0 0 0 0 0 0 0 0 0 0 0 0 0 0 0 0 0 0 0 0 0
0 0 0 0 0 0 0 0 0 0 0 0 0 0 0 0 0 0 0 0 0 0 0 0 0 0 0 0 0 0 0 0 0 0 0 0 0 0 0 0 0 0 0
0 0 0 0 0 0 0 0 0 0 0 0 0 0 0 0 0 0 0 0 0 0 0 0 0 0 0 0 0 0 0 0 0 0 0 0 0 0 0 0 0 0 0
0 0 0 0 0 0 0 0 0 0 0 0 0 0 0 0 0 0 0 0 0 0 0 0 0 0 0 0 0 0 0 0 0 0 0 0 0 0 0 0 0 0 0
0 0 0 0 0 0 0 0 0 0 0 0 0 0 0 0 0 0 0 0 0 0 0 0 0 0 0 0 0 0 0 0 0 0 0 0 0 0 0 0 0 0 0
0 0 0 0 0 0 0 0 0 0 0 0 0 0 0 0 0 0 0 0 0 0 0 0 0 0 0 0 0 0 0 0 0 0 0 0 0 0 0 0 0 0 0
0 0 0 0 0 0 0 0 0 0 0 0 0 0 0 0 0 0 0 0 0 0 0 0 0 0 0 0 0 0 0 0 0 0 0 0 0 0 0 0 0 0 0
0 0 0 0 0 0 0 0 0 0 0 0 0 0 0 0 0 0 0 0 0 0 0 0 0 0 0 0 0 0 0 0 0 0 0 0 0 0 0 0 0 0 0
0 0 0 0 0 0 0 0 0 0 0 0 0 0 0 0 0 0 0 0 0 0 0 0 0 0 0 0 0 0 0 0 0 0 0 0 0 0 0 0 0 0 0
0 0 0 0 0 0 0 0 0 0 0 0 0 0 0 0 0 0 0 0 0 0 0 0 0 0 0 0 0 0 0 0 0 0 0 0 0 0 0 0 0 0 0
0 0 0 0 0 0 0 0 0 0 0 0 0 0 0 0 0 0 0 0 0 0 0 0 0 0 0 0 0 0 0 0 0 0 0 0 0 0 0 0 0 0 0
0 0 0 0 0 0 0 0 0 0 0 0 0 0 0 0 0 0 0 0 0 0 0 0 0 0 0 0 0 0 0 0 0 0 0 0 0 0 0 0 0 0 0
0 0 0 0 0 0 0 0 0 0 0 0 0 0 0 0 0 0 0 0 0 0 0 0 0 0 0 0 0 0 0 0 0 0 0 0 0 0 0 0 0 0 0
0 0 0 0 0 0 0 0 0 0 0 0 0 0 0 0 0 0 0 0 0 0 0 0 0 0 0 0 0 0 0 0 0 0 0 0 0 0 0 0 0 0 0
0 0 0 0 0 0 0 0 0 0 0 0 0 0 0 0 0 0 0 0 0 0 0 0 0 0 0 0 0 0 0 0 0 0 0 0 0 0 0 0 0 0 0
0 0 0 0 0 0 0 0 0 0 0 0 0 0 0 0 0 0 0 0 0 0 0 0 0 0 0 0 0 0 0 0 0 0 0 0 0 0 0 0 0 0 0
0 0 0 0 0 0 0 0 0 0 0 0 0 0 0 0 0 0 0 0 0 0 0 0 0 0 0 0 0 0 0 0 0 0 0 0 0 0 0 0 0 0 0
0 0 0 0 0 0 0 0 0 0 0 0 0 0 0 0 0 0 0 0 0 0 0 0 0 0 0 0 0 0 0 0 0 0 0 0 0 0 0 0 0 0 0
0 0 0 0 0 0 0 0 0 0 0 0 0 0 0 0 0 0 0 0 0 0 0 0 0 0 0 0 0 0 0 0 0 0 0 0 0 0 0 0 0 0 0
0 0 0 0 0 0 0 0 0 0 0 0 0 0 0 0 0 0 0 0 0 0 0 0 0 0 0 0 0 0 0 0 0 0 0 0 0 0 0 0 0 0 0
0 0 0 0 0 0 0 0 0 0 0 0 0 0 0 0 0 0 0 0 0 0 0 0 0 0 0 0 0 0 0 0 0 0 0 0 0 0 0 0 0 0 0
0 0 0 0 0 0 0 0 0 0 0 0 0 0 0 0 0 0 0 0 0 0 0 0 0 0 0 0 0 0 0 0 0 0 0 0 0 0 0 0 0 0 0
0 0 0 0 0 0 0 0 0 0 0 0 0 0 0 0 0 0 0 0 0 0 0 0 0 0 0 0 0 0 0 0 0 0 0 0 0 0 0 0 0 0 0
0 0 0 0 0 0 0 0 0 0 0 0 0 0 0 0 0 0 0 0 0 0 0 0 0 0 0 0 0 0 0 0 0 0 0 0 0 0 0 0 0 0 0
Height
5577 5577 5577 5577 5577 5577 5577 5577 5577 5576 5576 5575 5575 5574 5573 5572 5572 5571 5571 5570 5569 5569 5568 5568 5567 5567 5567 5567 5567 5567 5567 5567 5569 5573 5572 5572 5572 5573 5574 5575 5577 5578 5578
5564 5564 5564 5564 5564 5564 5563 5563 5563 5562 5562 5561 5560 5560 5559 5558 5558 5557 5556 5555 5555 5554 5553 5553 5552 5552 5552 5551 5551 5551 5551 5551 5551 5554 5556 5555 5556 5556 5557 5558 5559 5560 5560
5551 5551 5551 5551 5551 5550 5550 5549 5549 5548 5548 5547 5547 5546 5545 5544 5543 5542 5542 5541 5540 5539 5538 5538 5537 5537 5537 5536 5535 5535 5535 5534 5535 5536 5539 5539 5539 5539 5540 5541 5542 5542 5543
5537 5537 5537 5537 5537 5537 5536 5536 5535 5535 5534 5533 5533 5532 5531 5530 5529 5528 5527 5527 5526 5525 5524 5523 5522 5522 5521 5521 5520 5519 5519 5519 5519 5519 5521 5522 5523 5523 5523 5524 5525 5525 5526
5524 5524 5524 5524 5524 5523 5523 5522 5522 5521 5521 5520 5519 5518 5517 5517 5516 5514 5513 5512 5512 5511 5510 5509 5508 5507 5506 5505 5505 5504 5504 5503 5503 5503 5504 5505 5506 5507 5507 5507 5508 5508 5509
5511 5511 5511 5510 5510 5510 5510 5509 5509 5508 5507 5507 5506 5505 5504 5503 5502 5501 5499 5498 5497 5496 5496 5495 5493 5492 5492 5491 5490 5489 5489 5488 5488 5488 5489 5489 5490 5490 5490 5490 5490 5492 5494
5498 5498 5498 5497 5497 5497 5496 5496 5495 5495 5494 5493 5493 5492 5491 5490 5488 5487 5485 5484 5484 5483 5482 5481 5480 5478 5477 5476 5475 5475 5474 5473 5473 5473 5473 5474 5474 5474 5474 5474 5474 5474 5476
5485 5485 5485 5485 5485 5484 5484 5483 5483 5482 5482 5481 5480 5478 5478 5477 5475 5474 5472 5471 5470 5469 5468 5467 5466 5465 5463 5462 5461 5461 5460 5459 5459 5458 5459 5458 5458 5457 5457 5458 5458 5459 5460
5473 5472 5472 5472 5472 5471 5471 5470 5470 5470 5469 5468 5467 5466 5465 5464 5462 5461 5460 5458 5458 5456 5455 5454 5452 5451 5450 5449 5448 5448 5447 5446 5445 5444 5443 5443 5442 5442 5442 5442 5443 5443 5445
5461 5460 5460 5459 5459 5459 5458 5458 5457 5457 5456 5455 5454 5453 5452 5451 5450 5449 5447 5446 5445 5444 5443 5441 5440 5438 5437 5436 5435 5434 5434 5433 5432 5431 5430 5429 5429 5428 5428 5428 5428 5428 5429
5448 5448 5448 5447 5447 5446 5446 5445 5445 5444 5444 5443 5442 5441 5440 5439 5438 5437 5435 5434 5433 5432 5431 5429 5428 5426 5425 5424 5423 5422 5421 5420 5419 5419 5418 5417 5416 5416 5415 5415 5414 5414 5415
5437 5436 5436 5435 5435 5434 5434 5433 5433 5432 5432 5431 5431 5430 5429 5428 5426 5425 5423 5422 5421 5420 5419 5418 5416 5415 5414 5413 5412 5411 5409 5408 5408 5407 5407 5406 5405 5404 5403 5403 5402 5401 5401
5425 5425 5424 5423 5423 5422 5422 5422 5421 5421 5421 5420 5419 5419 5418 5416 5415 5414 5412 5411 5410 5409 5408 5407 5405 5404 5403 5402 5401 5400 5399 5398 5397 5397 5396 5395 5394 5393 5392 5391 5391 5390 5390
5414 5413 5413 5412 5412 5411 5411 5410 5410 5410 5409 5409 5408 5407 5406 5405 5404 5403 5401 5400 5399 5398 5397 5396 5395 5394 5392 5392 5390 5389 5389 5388 5387 5386 5385 5385 5384 5383 5382 5381 5380 5379 5378
5403 5402 5401 5401 5400 5400 5400 5400 5399 5399 5398 5398 5397 5396 5395 5395 5394 5392 5391 5390 5389 5388 5387 5386 5385 5384 5383 5382 5381 5380 5379 5378 5377 5376 5375 5374 5373 5372 5371 5370 5369 5368 5367
5392 5391 5390 5390 5390 5389 5389 5389 5388 5388 5387 5386 5386 5385 5385 5384 5383 5382 5381 5380 5378 5378 5377 5376 5375 5374 5373 5372 5371 5370 5369 5368 5367 5366 5365 5364 5363 5362 5361 5360 5359 5358 5357
5381 5380 5380 5379 5379 5379 5379 5378 5378 5377 5376 5376 5375 5375 5374 5374 5373 5372 5371 5369 5369 5368 5367 5366 5365 5364 5363 5362 5362 5361 5360 5359 5357 5356 5355 5354 5353 5352 5351 5350 5349 5348 5347
5370 5369 5369 5369 5369 5368 5368 5368 5367 5367 5366 5366 5365 5365 5364 5363 5363 5362 5361 5360 5359 5358 5357 5357 5356 5355 5354 5353 5352 5351 5350 5349 5348 5347 5346 5344 5343 5342 5341 5340 5339 5337 5336
5360 5359 5359 5359 5359 5358 5358 5358 5357 5357 5356 5356 5355 5355 5354 5353 5352 5352 5351 5350 5350 5349 5348 5347 5346 5345 5344 5343 5342 5342 5341 5340 5339 5337 5336 5335 5334 5333 5331 5330 5328 5327 5325
5350 5350 5349 5349 5349 5349 5349 5348 5348 5347 5347 5346 5345 5345 5344 5343 5343 5342 5341 5341 5340 5339 5338 5337 5336 5335 5334 5334 5333 5332 5331 5330 5329 5328 5327 5325 5324 5323 5321 5320 5318 5316 5314
5341 5341 5340 5340 5340 5340 5339 5339 5339 5338 5337 5337 5336 5335 5335 5334 5333 5333 5332 5331 5330 5329 5328 5327 5327 5326 5325 5324 5323 5322 5321 5320 5319 5318 5317 5315 5314 5313 5311 5309 5307 5305 5303
5332 5332 5332 5331 5331 5331 5331 5330 5330 5329 5328 5327 5327 5326 5325 5324 5324 5323 5322 5321 5320 5319 5319 5318 5317 5316 5315 5314 5313 5312 5311 5310 5309 5308 5307 5305 5304 5302 5301 5299 5297 5294 5292
5324 5323 5323 5323 5323 5322 5322 5321 5321 5320 5319 5318 5317 5316 5315 5315 5314 5313 5312 5311 5310 5309 5309 5308 5307 5306 5305 5304 5303 5302 5301 5300 5299 5297 5296 5295 5294 5292 5290 5288 5286 5284 5282
5315 5315 5314 5314 5314 5313 5313 5312 5312 5311 5310 5308 5307 5307 5306 5305 5304 5303 5302 5302 5301 5300 5299 5298 5297 5296 5295 5294 5293 5292 5291 5290 5288 5287 5286 5285 5283 5282 5280 5278 5276 5273 5272
5306 5306 5306 5305 5305 5304 5303 5303 5302 5301 5300 5299 5298 5297 5296 5295 5294 5293 5293 5292 5291 5290 5289 5289 5288 5287 5286 5285 5283 5282 5281 5280 5278 5277 5276 5275 5273 5272 5270 5268 5266 5264 5262
5297 5297 5296 5296 5295 5294 5294 5293 5292 5291 5291 5289 5288 5287 5286 5286 5285 5284 5283 5282 5282 5281 5280 5279 5278 5277 5276 5275 5274 5273 5271 5270 5269 5268 5267 5265 5264 5262 5260 5258 5256 5255 5253
Wind_Speed
45 46 46 47 47 48 48 49 49 50 50 50 50 51 51 52 52 52 52 53 52 52 53 53 54 54 55 56 58 58 59 59 59 59 60 60 60 60 60 60 60 61 62
45 46 46 46 47 47 48 48 49 50 50 50 51 51 52 52 52 52 52 52 52 53 53 53 53 54 55 55 56 57 58 59 59 58 58 59 59 60 60 60 59 60 61
45 45 45 45 45 46 46 47 48 49 49 49 50 50 50 51 51 51 50 51 51 52 52 52 53 54 54 55 55 56 56 56 57 57 57 58 59 60 60 59 59 59 60
44 44 44 44 45 45 46 46 47 47 47 48 48 48 48 48 49 49 49 50 50 51 51 51 52 52 53 53 54 53 54 54 54 55 56 57 58 58 58 58 58 58 59
44 44 44 44 44 45 45 46 46 46 47 47 47 47 48 48 48 48 49 49 50 50 50 50 50 51 51 52 52 52 53 53 54 54 54 55 55 56 56 58 58 58 58
43 43 44 44 44 44 45 45 45 45 46 46 47 46 47 47 48 48 48 48 48 49 48 48 49 49 49 50 52 52 52 53 53 54 54 54 54 55 55 55 56 56 56
42 42 43 43 43 44 44 45 44 45 45 45 45 46 46 46 46 46 46 46 46 46 46 47 47 48 49 50 51 51 51 52 52 52 52 52 52 52 53 54 54 54 53
41 41 42 42 42 43 44 44 44 44 44 44 44 44 44 44 44 44 44 45 45 45 45 46 46 47 47 47 48 48 49 49 49 50 50 50 51 51 51 52 52 53 52
41 41 41 41 42 42 43 43 43 43 43 43 43 42 42 42 42 42 43 43 44 44 44 44 45 45 44 44 45 45 45 45 46 48 49 49 49 49 49 49 49 50 50
40 41 41 41 42 42 42 41 41 41 41 41 41 40 40 41 41 42 42 42 42 42 42 42 42 42 42 42 43 43 43 43 43 44 44 45 45 46 46 47 47 47 48
40 40 40 40 40 41 40 40 40 40 39 39 39 38 39 39 40 40 40 40 39 39 39 39 39 39 39 39 40 40 40 40 40 40 40 41 41 42 43 44 45 45 45
38 38 38 38 39 39 39 39 39 39 38 38 37 37 37 38 38 38 38 38 38 38 38 38 37 37 37 37 37 38 38 38 38 37 37 37 38 38 39 40 40 41 42
37 37 37 37 37 38 38 37 37 37 37 36 36 36 36 36 37 37 37 37 37 36 36 36 36 36 36 36 36 37 37 36 36 35 35 35 36 36 36 36 37 38 39
37 36 36 36 35 35 35 35 35 35 35 36 36 36 35 35 35 35 36 36 35 35 34 34 34 34 34 34 35 35 35 35 34 35 35 34 34 34 34 35 35 36 36
35 35 35 34 34 34 33 33 33 34 34 35 34 34 34 34 33 34 35 34 34 34 33 33 32 32 33 32 32 33 33 33 34 34 34 34 34 34 34 34 35 35 35
34 34 34 33 33 33 33 32 32 33 33 33 33 33 33 32 33 33 34 34 33 32 32 32 31 31 31 31 31 31 32 32 33 33 33 33 33 33 33 34 35 35 35
33 33 33 33 33 33 32 32 32 32 32 32 32 32 32 32 32 32 32 32 32 31 30 30 30 30 30 30 30 31 31 32 32 32 32 32 32 33 33 34 34 35 35
32 32 31 31 32 31 31 31 31 31 30 31 31 32 32 32 32 31 31 31 30 30 30 31 31 31 30 31 31 31 31 31 31 31 32 32 32 32 32 33 34 35 35
30 30 30 30 30 30 30 29 30 30 29 30 30 31 31 31 31 31 30 30 30 31 31 31 31 31 31 31 31 31 31 31 31 31 31 32 32 32 32 33 34 35 36
28 28 28 28 28 28 29 29 29 28 29 29 29 29 30 30 31 31 31 30 31 31 31 31 31 31 31 31 31 31 31 31 31 31 31 32 32 33 33 34 34 35 36
27 27 27 27 26 26 27 27 27 27 27 28 28 29 29 30 30 31 31 31 30 30 30 30 30 30 31 31 31 32 32 32 32 32 32 32 33 33 34 34 35 35 35
26 26 26 25 26 26 27 27 27 27 27 28 28 29 29 29 30 30 30 30 29 30 30 30 30 30 30 31 31 31 32 32 32 32 33 33 33 33 34 34 34 34 34
25 25 26 26 27 27 27 27 28 28 28 28 29 29 29 29 29 29 29 28 28 29 29 30 30 30 30 30 31 31 31 31 32 32 32 32 32 33 33 33 33 33 33
26 26 26 27 27 28 28 28 28 28 28 28 29 29 29 30 29 29 29 29 29 29 29 29 29 29 29 30 30 30 30 30 30 31 31 31 31 32 32 32 32 32 32
26 26 27 27 27 27 28 28 29 29 29 29 29 29 29 29 29 29 29 29 29 29 29 29 29 29 29 30 30 30 30 30 30 30 30 30 30 31 31 31 31 31 31
26 26 26 27 27 27 28 28 28 29 29 28 28 28 28 28 28 29 29 29 29 29 29 29 29 29 30 30 30 30 29 29 29 29 29 29 29 29 29 29 29 30 30
Wind_Direction
265 266 266 267 267 268 269 268 269 269 270 270 271 271 272 272 273 273 273 273 273 273 273 272 272 271 271 271 271 270 270 269 268 267 266 266 266 266 266 266 266 266 266
266 266 266 267 268 269 269 270 270 269 269 270 271 272 272 273 273 274 274 274 274 274 274 273 272 272 272 273 273 272 271 270 269 268 267 267 266 267 266 267 267 267 267
265 266 267 268 269 269 270 270 270 270 270 271 272 273 273 273 273 273 273 274 274 275 274 274 273 273 273 274 274 274 272 271 270 269 268 268 267 267 266 266 267 266 266
266 266 267 268 268 269 269 270 270 271 271 271 272 273 273 273 273 273 274 274 274 274 274 274 274 274 274 275 275 273 272 271 271 270 269 268 267 267 266 266 266 266 265
267 267 267 268 268 268 269 269 269 270 271 272 272 272 273 274 274 274 274 274 274 274 275 275 276 275 275 274 274 273 273 272 271 271 270 269 268 267 267 267 266 267 266
268 268 268 269 269 269 269 269 270 270 271 272 272 273 274 274 275 275 275 275 276 275 275 275 276 275 274 274 274 274 274 273 272 271 271 270 269 268 268 268 267 267 266
267 268 268 269 269 269 269 269 270 271 271 272 273 272 273 274 275 275 276 276 277 276 276 276 276 276 276 275 274 274 274 273 272 272 272 271 270 270 268 268 267 267 267
267 267 267 268 269 269 269 269 270 271 272 272 273 273 273 274 275 276 277 277 277 277 277 277 277 277 276 276 275 275 274 273 272 272 272 272 271 270 269 268 268 268 267
267 267 268 269 270 270 270 269 270 271 271 272 273 274 274 274 276 277 278 278 279 278 278 278 278 277 277 276 276 276 275 274 273 272 272 272 271 270 269 269 269 268 268
268 268 269 270 270 271 271 270 271 272 272 273 274 274 274 275 276 277 278 279 279 279 279 279 278 278 278 277 276 276 276 275 274 273 272 271 271 270 269 269 269 269 269
271 271 271 271 271 272 272 272 272 273 273 274 274 274 275 275 277 278 279 279 280 280 280 280 279 279 278 278 277 277 277 275 274 274 273 273 273 272 271 270 270 270 271
273 272 272 272 272 272 273 273 273 272 273 273 273 274 275 277 277 278 278 279 279 280 281 281 281 280 279 278 277 276 276 277 276 275 275 275 274 274 273 273 273 273 273
274 274 273 273 273 273 273 272 271 271 272 273 273 275 276 277 277 278 279 280 280 281 281 282 281 280 279 278 278 277 278 277 276 276 276 276 275 275 275 274 274 274 274
274 274 274 273 273 273 273 272 272 272 272 273 274 275 275 277 278 279 280 280 280 281 281 281 280 279 278 278 277 277 278 277 276 275 275 275 276 275 275 274 275 275 275
275 275 274 273 272 272 272 272 272 273 273 274 274 274 275 276 277 279 280 279 279 280 279 279 279 279 279 279 278 277 277 277 276 276 276 276 276 275 274 274 275 276 277
276 275 274 273 272 271 271 272 273 273 273 274 274 274 274 274 275 277 279 279 278 277 278 279 279 280 280 279 278 277 277 277 277 276 276 276 276 275 275 275 276 277 278
276 274 272 272 272 272 272 273 273 273 272 272 273 273 273 273 274 276 278 277 276 278 278 279 280 280 279 278 277 277 277 277 278 277 277 276 276 276 277 278 278 279 280
276 274 273 272 273 273 274 274 274 274 273 272 272 273 273 274 275 276 277 277 277 278 279 279 279 279 278 277 278 278 278 278 279 279 278 278 278 279 280 280 281 281 281
275 274 273 273 273 273 273 274 275 274 273 272 273 274 274 274 275 277 278 277 277 278 279 279 279 279 278 278 278 277 278 279 280 279 279 279 279 280 281 282 283 283 283
275 275 275 274 273 272 273 274 274 274 273 273 273 273 274 275 277 278 279 278 278 278 279 279 279 279 278 278 278 278 278 278 280 280 280 280 280 281 282 283 283 283 283
276 275 275 273 272 272 273 274 274 274 274 274 275 274 273 275 277 278 279 279 278 278 278 278 278 279 279 278 279 279 278 279 279 280 281 281 281 282 283 284 284 283 283
274 273 272 271 271 272 273 274 274 275 276 276 276 276 276 277 278 278 278 279 278 277 277 277 278 278 278 279 279 279 279 279 279 280 281 281 282 283 284 285 285 284 284
273 272 271 272 272 272 273 275 276 277 277 276 277 277 278 278 279 278 278 278 279 278 278 277 277 278 279 280 280 280 280 280 281 281 282 282 283 284 285 286 286 286 285
273 273 273 273 273 273 274 275 277 278 278 278 277 277 278 278 278 278 278 278 278 279 279 279 279 279 280 281 282 282 282 283 282 283 284 284 285 286 287 287 287 286 286
275 275 274 274 274 274 274 275 277 278 279 279 279 278 278 278 278 278 278 279 279 279 280 281 280 280 281 282 283 283 283 284 284 284 285 285 286 287 288 288 288 287 286
277 276 276 275 275 275 275 276 277 277 278 279 279 279 279 280 280 279 279 279 280 280 281 282 281 281 282 282 283 283 283 284 284 285 286 286 287 288 289 288 288 287 288